Regional Weather Roundup
Issued by NWS

Home | Current Version | Previous Version | Text Only | Print | Product List | Glossary On
Versions: 1 2 3 4 5 6 7 8 9 10 11 12 13 14 15 16 17 18 19 20 21 22 23 24 25 26 27 28 29 30 31 32 33 34 35 36 37 38 39 40 41 42 43 44 45 46 47 48 49 50
000
ASUS43 KMPX 281610
RWRMN
WEATHER ROUNDUP FOR MINNESOTA
NATIONAL WEATHER SERVICE TWIN CITIES/CHANHASSEN MN
1100 AM CDT FRI APR 28 2017


NOTE: "FAIR" INDICATES FEW OR NO CLOUDS BELOW 12,000 FEET WITH NO
SIGNIFICANT WEATHER AND/OR OBSTRUCTIONS TO VISIBILITY. N/A MEANS
CURRENT SKY AND/OR WEATHER CONDITIONS ARE NOT AVAILABLE.

MNZ060>063-068>070-281700-
   Twin Cities Metro

CITY           SKY/WX    TMP DP  RH WIND       PRES   REMARKS
TWIN CITIES    MOSUNNY   43  26  51 N7        29.94R
ST PAUL        SUNNY     42  26  53 N7        29.95R
CRYSTAL        SUNNY     42  25  50 NW9       29.93R
BLAINE         MOSUNNY   43  27  52 N14       29.93R
LAKEVILLE      CLOUDY    39  28  65 N6        29.93R
EDEN PRAIRIE   SUNNY     42  26  53 NW6       29.92R
SOUTH ST PAUL  SUNNY     41  25  53 CALM      29.94R
LAKE ELMO      FAIR      41  28  60 NW7       29.94R
$$
MNZ001>005-007-008-013>017-022>024-027-028-281700-
   Northwest Minnesota

CITY           SKY/WX    TMP DP  RH WIND       PRES   REMARKS
BEMIDJI        SUNNY     37  21  53 NW14      29.89S
HALLOCK        SUNNY     45  19  36 N17       29.96R
ROSEAU         SUNNY     39  25  56 W8        29.92R
WARROAD        SUNNY     37  21  52 NW12      29.91R
THIEF RVR FALL SUNNY     38  25  59 NW14      29.96R
CROOKSTON      SUNNY     41  27  56 N16       29.97R
FOSSTON        SUNNY     37  21  52 NW14G21   29.94R
DETROIT LAKES  SUNNY     36  30  80 NW9       29.96R
MOORHEAD       SUNNY     39  30  70 NW7       30.00R
PARK RAPIDS    SUNNY     40  20  44 NW13      29.91R
MAHNOMEN       FAIR      36  28  71 NW9       29.95R
$$
MNZ006-009>011-018-025>026-281700-
   North Central Minnesota

CITY           SKY/WX    TMP DP  RH WIND       PRES   REMARKS
BAUDETTE       SUNNY     37  18  46 NW17      29.87R
FLAG ISLAND    MOSUNNY   36  14  41 NW17      29.89R
INTL FALLS     MOSUNNY   36  21  54 NW18G26   29.83R
WASKISH        MOSUNNY   41  18  38 NW13G22   29.88S
BIG FORK       SUNNY     41  19  42 NW8G20    29.83S
LONGVILLE      SUNNY     37  28  70 W9        29.90R
GRAND RAPIDS   MOSUNNY   37  24  59 NW15      29.89R
CRANE LAKE     CLOUDY    32  23  69 NW9G17    29.82S WCI  24
ORR            CLOUDY    34  21  60 NW12G22   29.79R WCI  25
COOK           CLOUDY    34  23  64 W20       29.82R WCI  22
WALKER         FAIR      37  20  51 NW13      29.90R
$$
MNZ012-019>021-037-281700-
   Northeast Minnesota

CITY           SKY/WX    TMP DP  RH WIND       PRES   REMARKS
DULUTH         CLOUDY    35  25  66 NW15      29.85R WCI  25
ELY            PTSUNNY   34  21  60 NW15G28   29.77R WCI  24
HIBBING        MOSUNNY   34  24  67 NW18G28   29.83R WCI  23
EVELETH        PTSUNNY   35  23  62 NW17G23   29.83R WCI  25
DULUTH HARBOR  CLOUDY    37  27  65 W14       29.90R
TWO HARBORS    PTSUNNY   37  28  70 W9G17     29.81R
SILVER BAY     CLOUDY    36  27  69 W12G17    29.79R
GRAND MARAIS     N/A     34  27  75 VRB7G18   29.77R WCI  28
G MARAIS ARPRT CLOUDY    27  19  74 CALM      29.71R
$$
MNZ029>031-032-039>041-046>048-054>057-064-281700-
   West Central Minnesota

CITY           SKY/WX    TMP DP  RH WIND       PRES   REMARKS
FERGUS FALLS   SUNNY     39  30  70 N8        29.98R
WHEATON        SUNNY     43  27  52 NW12      30.00R
MORRIS         MOSUNNY   43  30  61 N18       29.96R
ALEXANDRIA     MOSUNNY   41  28  60 N10G21    29.96R
ELBOW LAKE     PTSUNNY   37  29  72 NW10      29.98R
WADENA         MOSUNNY   36  28  75 CALM      29.94S
GLENWOOD       SUNNY     41  28  60 NW10G17   29.95R
APPLETON       SUNNY     43  28  56 N16G24    29.95S
BENSON         SUNNY     45  27  49 NE17      29.96S
ORTONVILLE     SUNNY     43  30  61 N15G23    29.96S
MADISON        CLOUDY    45  32  61 N15       29.96R
WILLMAR        FAIR      41  32  70 N15       29.95S
$$
MNZ033>034-036-042>043-049>051-058-059-281700-
   Central Minnesota

CITY           SKY/WX    TMP DP  RH WIND       PRES   REMARKS
ST CLOUD       SUNNY     39  28  64 NW13G20   29.94R
SAUK CENTRE    FAIR      38  28  66 NW9G18    29.95R
PAYNESVILLE    MOSUNNY   39  31  74 N10G18    29.94S
AITKIN         PTSUNNY   39  27  60 W6        29.90R
PINE RIVER     SUNNY     36  27  69 N5        29.95R
BRAINERD       PTSUNNY   37  25  61 NW12      29.94R
STAPLES        PTSUNNY   36  27  69 NW6       29.94S
LONG PRAIRIE   PTSUNNY   37  28  70 NW10      29.95R
LITTLE FALLS   PTSUNNY   37  27  65 NW12      29.95R
LITCHFIELD     SUNNY     39  30  70 N10       29.94R
BUFFALO        SUNNY     40  27  60 NW10      29.95R
MAPLE LAKE     SUNNY     42  31  65 N9        29.94S
HUTCHINSON     SUNNY     41  32  69 N9G21     29.95R
$$
MNZ037-044-045-052-053-281700-
   East Central Minnesota

CITY           SKY/WX    TMP DP  RH WIND       PRES   REMARKS
PRINCETON      SUNNY     43  28  56 N12       29.94R
MORA           PTSUNNY   37  28  70 NW7       29.95R
CAMBRIDGE      SUNNY     41  27  56 NW9       29.91S
RUSH CITY      PTSUNNY   39  28  63 NW9       29.94R
MOOSE LAKE     CLOUDY    36  27  69 NW10      29.89R
HINCKLEY       CLOUDY    36  28  75 W5G17     29.93R
CLOQUET        CLOUDY    36  23  60 W10       29.87R
MCGREGOR       CLOUDY    36  28  75 W7        29.90R
$$
MNZ071>073-080-081-089-090-097-098-281700-
   Southwest Minnesota

CITY           SKY/WX    TMP DP  RH WIND       PRES   REMARKS
MONTEVIDEO     MOSUNNY   43  30  61 N12G21    29.96R
GRANITE FALLS  CLOUDY    43  33  65 N15       29.97R
CANBY          CLOUDY    43  30  60 NE15      29.97R
MARSHALL       CLOUDY    40  28  62 N16G22    29.95R
REDWOOD FALLS  CLOUDY    41  30  65 NW9       29.95R
OLIVIA         MOSUNNY   41  32  70 NE10G16   29.94R
PIPESTONE      CLOUDY    39  25  56 NE15      29.91S
WINDOM         CLOUDY    41  30  65 N9        29.93R
WORTHINGTON    MOSUNNY   38  30  73 NE13      29.94R
JACKSON        MOSUNNY   39  32  75 VRB9      29.92S
TRACY          CLOUDY    41  32  70 N15G21    29.94R
SLAYTON        PTSUNNY   37  30  73 N15       29.92S
$$
MNZ065>067-074>077-082>085-091>093-281700-
   South Central Minnesota

CITY           SKY/WX    TMP DP  RH WIND       PRES   REMARKS
MANKATO        MOSUNNY   42  27  55 VRB5      29.94R
NEW ULM        CLOUDY    41  28  60 N9        29.94R
ST JAMES       CLOUDY    43  32  65 N10       29.95R
FAIRMONT       CLOUDY    40  32  73 N13       29.92S
GLENCOE        CLOUDY    40  31  70 N3        29.94R
FARIBAULT      CLOUDY    43  32  65 N9        29.94R
OWATONNA       CLOUDY    43  32  65 NW7       29.93R
WASECA         PTSUNNY   43  34  70 N6        29.94R
ALBERT LEA     CLOUDY    41  30  65 N6        29.90F
$$
MNZ078>079-086>088-094>096-281700-
   Southeast Minnesota

CITY           SKY/WX    TMP DP  RH WIND       PRES   REMARKS
ROCHESTER      CLOUDY    41  32  70 NW5       29.92R
RED WING       CLOUDY    43  21  42 NW6       29.92R
STANTON        CLOUDY    43  30  59 N3        29.93R
DODGE CENTER   CLOUDY    39  32  75 NW6       29.92R
WINONA         CLOUDY    43  32  65 NE3       29.95R
AUSTIN         CLOUDY    41  30  65 NE6       29.91S
PRESTON        CLOUDY    42  30  62 NW6       29.91S
$$
ABBREVIATIONS USED IN REMARKS
   TC - TEMPERATURES IN CELSIUS
  WCI - WIND CHILL INDEX
   HX - HEAT INDEX
  VSB - VISIBILITY
$$




USA.gov is the U.S. government's official web portal to all federal, state and local government web resources and services.